Simultaneous Nadir Overpasses (SNOs) Predictions

Prediction of SNOs between GOES-16 and NOAA-19 Satellite Orbit:

Table of predicted SNOs for the next 14.0 days since TLE Epoch: 4/23/2022
Index Date Time (GOES-16) GOES-16 Lat,Lon NOAA-19 Lat,Lon Distance(km) Time Diff (sec)
1 04/24/2022 00:28:41 -0.04, -75.20 0.53, -72.62 294.29 80
2 04/26/2022 12:51:59 0.05, -75.22 0.55, -77.52 261.00 80
3 04/27/2022 12:37:29 0.04, -75.23 -0.09, -74.63 68.43 80
4 04/28/2022 12:25:41 0.04, -75.23 -0.79, -71.75 398.06 80
5 04/30/2022 01:00:50 -0.05, -75.22 -1.02, -79.53 491.36 80
6 05/01/2022 00:49:01 -0.04, -75.23 -0.36, -76.64 161.30 80
7 05/02/2022 00:34:31 -0.04, -75.24 0.30, -73.76 168.86 80
8 05/03/2022 00:22:42 -0.04, -75.25 0.97, -70.87 499.06 80
9 05/04/2022 12:57:50 0.03, -75.29 0.79, -78.66 384.16 80
10 05/05/2022 12:46:01 0.03, -75.30 0.14, -75.77 53.83 80
11 05/06/2022 12:31:31 0.03, -75.31 -0.52, -72.88 276.63 80
